Year,Month,Day,Hour,Minute,Value (Times are PST for temperature in C)
2015,08,13,00,00,19.40
2015,08,13,00,01,19.40
2015,08,13,00,02,19.40
2015,08,13,00,03,19.30
2015,08,13,00,04,19.30
2015,08,13,00,05,19.30
2015,08,13,00,06,19.30
2015,08,13,00,07,19.30
2015,08,13,00,08,19.30
2015,08,13,00,09,19.30
2015,08,13,00,10,19.30
2015,08,13,00,11,19.20
2015,08,13,00,12,19.20
2015,08,13,00,13,19.20
2015,08,13,00,14,19.20
2015,08,13,00,15,19.20
2015,08,13,00,16,19.20
2015,08,13,00,17,19.20
2015,08,13,00,18,19.20
2015,08,13,00,19,19.20
2015,08,13,00,20,19.20
2015,08,13,00,21,19.20
2015,08,13,00,22,19.20
2015,08,13,00,23,19.10
2015,08,13,00,24,19.10
2015,08,13,00,25,19.10
2015,08,13,00,26,19.10
2015,08,13,00,27,19.10
2015,08,13,00,28,19.00
2015,08,13,00,29,19.00
2015,08,13,00,30,19.00
2015,08,13,00,31,19.00
2015,08,13,00,32,18.90
2015,08,13,00,33,18.90
2015,08,13,00,34,18.90
2015,08,13,00,35,18.90
2015,08,13,00,36,18.90
2015,08,13,00,37,18.90
2015,08,13,00,38,18.80
2015,08,13,00,39,18.80
2015,08,13,00,40,18.80
2015,08,13,00,41,18.80
2015,08,13,00,42,18.80
2015,08,13,00,43,18.80
2015,08,13,00,44,18.80
2015,08,13,00,45,18.70
2015,08,13,00,46,18.70
2015,08,13,00,47,18.70
2015,08,13,00,48,18.70
2015,08,13,00,49,18.70
2015,08,13,00,50,18.70
2015,08,13,00,51,18.70
2015,08,13,00,52,18.70
2015,08,13,00,53,18.70
2015,08,13,00,54,18.60
2015,08,13,00,55,18.60
2015,08,13,00,56,18.60
2015,08,13,00,57,18.60
2015,08,13,00,58,18.60
2015,08,13,00,59,18.60
2015,08,13,01,00,18.60
2015,08,13,01,01,18.60
2015,08,13,01,02,18.60
2015,08,13,01,03,18.50
2015,08,13,01,04,18.50
2015,08,13,01,05,18.50
2015,08,13,01,06,18.50
2015,08,13,01,07,18.50
2015,08,13,01,08,18.50
2015,08,13,01,09,18.50
2015,08,13,01,10,18.50
2015,08,13,01,11,18.40
2015,08,13,01,12,18.40
2015,08,13,01,13,18.40
2015,08,13,01,14,18.40
2015,08,13,01,15,18.40
2015,08,13,01,16,18.40
2015,08,13,01,17,18.40
2015,08,13,01,18,18.40
2015,08,13,01,19,18.40
2015,08,13,01,20,18.40
2015,08,13,01,21,18.40
2015,08,13,01,22,18.40
2015,08,13,01,23,18.40
2015,08,13,01,24,18.40
2015,08,13,01,25,18.40
2015,08,13,01,26,18.40
2015,08,13,01,27,18.40
2015,08,13,01,28,18.40
2015,08,13,01,29,18.40
2015,08,13,01,30,18.50
2015,08,13,01,31,18.50
2015,08,13,01,32,18.50
2015,08,13,01,33,18.50
2015,08,13,01,34,18.50
2015,08,13,01,35,18.50
2015,08,13,01,36,18.50
2015,08,13,01,37,18.50
2015,08,13,01,38,18.50
2015,08,13,01,39,18.50
2015,08,13,01,40,18.50
2015,08,13,01,41,18.50
2015,08,13,01,42,18.40
2015,08,13,01,43,18.40
2015,08,13,01,44,18.40
2015,08,13,01,45,18.40
2015,08,13,01,46,18.40
2015,08,13,01,47,18.40
2015,08,13,01,48,18.40
2015,08,13,01,49,18.40
2015,08,13,01,50,18.40
2015,08,13,01,51,18.40
2015,08,13,01,52,18.40
2015,08,13,01,53,18.40
2015,08,13,01,54,18.40
2015,08,13,01,55,18.40
2015,08,13,01,56,18.40
2015,08,13,01,57,18.40
2015,08,13,01,58,18.40
2015,08,13,01,59,18.40
2015,08,13,02,00,18.40
2015,08,13,02,01,18.40
2015,08,13,02,02,18.30
2015,08,13,02,03,18.30
2015,08,13,02,04,18.30
2015,08,13,02,05,18.30
2015,08,13,02,06,18.30
2015,08,13,02,07,18.30
2015,08,13,02,08,18.30
2015,08,13,02,09,18.30
2015,08,13,02,10,18.30
2015,08,13,02,11,18.20
2015,08,13,02,12,18.20
2015,08,13,02,13,18.20
2015,08,13,02,14,18.20
2015,08,13,02,15,18.20
2015,08,13,02,16,18.10
2015,08,13,02,17,18.10
2015,08,13,02,18,18.10
2015,08,13,02,19,18.10
2015,08,13,02,20,18.00
2015,08,13,02,21,18.00
2015,08,13,02,22,18.00
2015,08,13,02,23,17.90
2015,08,13,02,24,17.90
2015,08,13,02,25,17.90
2015,08,13,02,26,17.90
2015,08,13,02,27,17.90
2015,08,13,02,28,17.80
2015,08,13,02,29,17.80
2015,08,13,02,30,17.80
2015,08,13,02,31,17.80
2015,08,13,02,32,17.80
2015,08,13,02,33,17.80
2015,08,13,02,34,17.80
2015,08,13,02,35,17.80
2015,08,13,02,36,17.80
2015,08,13,02,37,17.80
2015,08,13,02,38,17.80
2015,08,13,02,39,17.80
2015,08,13,02,40,17.70
2015,08,13,02,41,17.70
2015,08,13,02,42,17.70
2015,08,13,02,43,17.70
2015,08,13,02,44,17.70
2015,08,13,02,45,17.70
2015,08,13,02,46,17.70
2015,08,13,02,47,17.70
2015,08,13,02,48,17.70
2015,08,13,02,49,17.70
2015,08,13,02,50,17.70
2015,08,13,02,51,17.70
2015,08,13,02,52,17.70
2015,08,13,02,53,17.70
2015,08,13,02,54,17.70
2015,08,13,02,55,17.70
2015,08,13,02,56,17.70
2015,08,13,02,57,17.70
2015,08,13,02,58,17.70
2015,08,13,02,59,17.60
2015,08,13,03,00,17.60
2015,08,13,03,01,17.60
2015,08,13,03,02,17.60
2015,08,13,03,03,17.60
2015,08,13,03,04,17.60
2015,08,13,03,05,17.60
2015,08,13,03,06,17.60
2015,08,13,03,07,17.50
2015,08,13,03,08,17.50
2015,08,13,03,09,17.50
2015,08,13,03,10,17.50
2015,08,13,03,11,17.40
2015,08,13,03,12,17.40
2015,08,13,03,13,17.40
2015,08,13,03,14,17.40
2015,08,13,03,15,17.40
2015,08,13,03,16,17.40
2015,08,13,03,17,17.40
2015,08,13,03,18,17.30
2015,08,13,03,19,17.30
2015,08,13,03,20,17.30
2015,08,13,03,21,17.30
2015,08,13,03,22,17.30
2015,08,13,03,23,17.30
2015,08,13,03,24,17.30
2015,08,13,03,25,17.30
2015,08,13,03,26,17.30
2015,08,13,03,27,17.20
2015,08,13,03,28,17.20
2015,08,13,03,29,17.20
2015,08,13,03,30,17.20
2015,08,13,03,31,17.20
2015,08,13,03,32,17.20
2015,08,13,03,33,17.20
2015,08,13,03,34,17.20
2015,08,13,03,35,17.20
2015,08,13,03,36,17.20
2015,08,13,03,37,17.20
2015,08,13,03,38,17.10
2015,08,13,03,39,17.10
2015,08,13,03,40,17.10
2015,08,13,03,41,17.10
2015,08,13,03,42,17.10
2015,08,13,03,43,17.10
2015,08,13,03,44,17.10
2015,08,13,03,45,17.10
2015,08,13,03,46,17.10
2015,08,13,03,47,17.00
2015,08,13,03,48,17.00
2015,08,13,03,49,17.00
2015,08,13,03,50,17.00
2015,08,13,03,51,16.90
2015,08,13,03,52,16.90
2015,08,13,03,53,16.90
2015,08,13,03,54,16.90
2015,08,13,03,55,16.90
2015,08,13,03,56,16.80
2015,08,13,03,57,16.80
2015,08,13,03,58,16.80
2015,08,13,03,59,16.80
2015,08,13,04,00,16.80
2015,08,13,04,01,16.80
2015,08,13,04,02,16.80
2015,08,13,04,03,16.70
2015,08,13,04,04,16.70
2015,08,13,04,05,16.70
2015,08,13,04,06,16.70
2015,08,13,04,07,16.70
2015,08,13,04,08,16.60
2015,08,13,04,09,16.60
2015,08,13,04,10,16.60
2015,08,13,04,11,16.60
2015,08,13,04,12,16.60
2015,08,13,04,13,16.50
2015,08,13,04,14,16.50
2015,08,13,04,15,16.50
2015,08,13,04,16,16.40
2015,08,13,04,17,16.40
2015,08,13,04,18,16.40
2015,08,13,04,19,16.40
2015,08,13,04,20,16.40
2015,08,13,04,21,16.30
2015,08,13,04,22,16.30
2015,08,13,04,23,16.30
2015,08,13,04,24,16.30
2015,08,13,04,25,16.30
2015,08,13,04,26,16.30
2015,08,13,04,27,16.20
2015,08,13,04,28,16.20
2015,08,13,04,29,16.20
2015,08,13,04,30,16.20
2015,08,13,04,31,16.20
2015,08,13,04,32,16.10
2015,08,13,04,33,16.10
2015,08,13,04,34,16.10
2015,08,13,04,35,16.10
2015,08,13,04,36,16.10
2015,08,13,04,37,16.00
2015,08,13,04,38,16.00
2015,08,13,04,39,16.00
2015,08,13,04,40,15.90
2015,08,13,04,41,15.90
2015,08,13,04,42,15.90
2015,08,13,04,43,15.90
2015,08,13,04,44,15.90
2015,08,13,04,45,15.90
2015,08,13,04,46,15.90
2015,08,13,04,47,15.90
2015,08,13,04,48,15.90
2015,08,13,04,49,15.90
2015,08,13,04,50,15.90
2015,08,13,04,51,15.90
2015,08,13,04,52,15.90
2015,08,13,04,53,15.90
2015,08,13,04,54,15.90
2015,08,13,04,55,15.90
2015,08,13,04,56,15.90
2015,08,13,04,57,15.90
2015,08,13,04,58,15.90
2015,08,13,04,59,15.90
2015,08,13,05,00,15.90
2015,08,13,05,01,15.90
2015,08,13,05,02,15.90
2015,08,13,05,03,15.90
2015,08,13,05,04,15.90
2015,08,13,05,05,15.90
2015,08,13,05,06,15.90
2015,08,13,05,07,15.90
2015,08,13,05,08,15.90
2015,08,13,05,09,15.90
2015,08,13,05,10,15.90
2015,08,13,05,11,15.90
2015,08,13,05,12,15.90
2015,08,13,05,13,15.90
2015,08,13,05,14,15.90
2015,08,13,05,15,15.90
2015,08,13,05,16,15.90
2015,08,13,05,17,15.90
2015,08,13,05,18,15.90
2015,08,13,05,19,15.90
2015,08,13,05,20,15.90
2015,08,13,05,21,15.90
2015,08,13,05,22,15.90
2015,08,13,05,23,15.90
2015,08,13,05,24,15.90
2015,08,13,05,25,15.90
2015,08,13,05,26,15.90
2015,08,13,05,27,15.90
2015,08,13,05,28,15.90
2015,08,13,05,29,15.90
2015,08,13,05,30,15.90
2015,08,13,05,31,15.90
2015,08,13,05,32,15.90
2015,08,13,05,33,15.90
2015,08,13,05,34,15.90
2015,08,13,05,35,15.90
2015,08,13,05,36,15.90
2015,08,13,05,37,15.90
2015,08,13,05,38,15.90
2015,08,13,05,39,15.90
2015,08,13,05,40,15.90
2015,08,13,05,41,15.90
2015,08,13,05,42,15.90
2015,08,13,05,43,15.90
2015,08,13,05,44,15.90
2015,08,13,05,45,15.90
2015,08,13,05,46,15.90
2015,08,13,05,47,15.90
2015,08,13,05,48,15.90
2015,08,13,05,49,15.90
2015,08,13,05,50,15.90
2015,08,13,05,51,15.90
2015,08,13,05,52,15.90
2015,08,13,05,53,15.90
2015,08,13,05,54,15.90
2015,08,13,05,55,15.90
2015,08,13,05,56,15.90
2015,08,13,05,57,15.90
2015,08,13,05,58,15.90
2015,08,13,05,59,15.90
2015,08,13,06,00,15.90
2015,08,13,06,01,15.90
2015,08,13,06,02,15.90
2015,08,13,06,03,15.90
2015,08,13,06,04,15.90
2015,08,13,06,05,15.90
2015,08,13,06,06,15.80
2015,08,13,06,07,15.80
2015,08,13,06,08,15.80
2015,08,13,06,09,15.80
2015,08,13,06,10,15.80
2015,08,13,06,11,15.80
2015,08,13,06,12,15.80
2015,08,13,06,13,15.80
2015,08,13,06,14,15.80
2015,08,13,06,15,15.80
2015,08,13,06,16,15.80
2015,08,13,06,17,15.70
2015,08,13,06,18,15.70
2015,08,13,06,19,15.70
2015,08,13,06,20,15.70
2015,08,13,06,21,15.70
2015,08,13,06,22,15.70
2015,08,13,06,23,15.60
2015,08,13,06,24,15.60
2015,08,13,06,25,15.60
2015,08,13,06,26,15.60
2015,08,13,06,27,15.60
2015,08,13,06,28,15.60
2015,08,13,06,29,15.60
2015,08,13,06,30,15.60
2015,08,13,06,31,15.50
2015,08,13,06,32,15.50
2015,08,13,06,33,15.50
2015,08,13,06,34,15.50
2015,08,13,06,35,15.50
2015,08,13,06,36,15.50
2015,08,13,06,37,15.50
2015,08,13,06,38,15.40
2015,08,13,06,39,15.40
2015,08,13,06,40,15.40
2015,08,13,06,41,15.40
2015,08,13,06,42,15.40
2015,08,13,06,43,15.40
2015,08,13,06,44,15.40
2015,08,13,06,45,15.40
2015,08,13,06,46,15.40
2015,08,13,06,47,15.40
2015,08,13,06,48,15.40
2015,08,13,06,49,15.40
2015,08,13,06,50,15.40
2015,08,13,06,51,15.40
2015,08,13,06,52,15.40
2015,08,13,06,53,15.40
2015,08,13,06,54,15.40
2015,08,13,06,55,15.40
2015,08,13,06,56,15.40
2015,08,13,06,57,15.40
2015,08,13,06,58,15.30
2015,08,13,06,59,15.40
2015,08,13,07,00,15.30
2015,08,13,07,01,15.40
2015,08,13,07,02,15.30
2015,08,13,07,03,15.30
2015,08,13,07,04,15.30
2015,08,13,07,05,15.30
2015,08,13,07,06,15.30
2015,08,13,07,07,15.30
2015,08,13,07,08,15.30
2015,08,13,07,09,15.30
2015,08,13,07,10,15.30
2015,08,13,07,11,15.30
2015,08,13,07,12,15.30
2015,08,13,07,13,15.30
2015,08,13,07,14,15.30
2015,08,13,07,15,15.30
2015,08,13,07,16,15.40
2015,08,13,07,17,15.40
2015,08,13,07,18,15.40
2015,08,13,07,19,15.40
2015,08,13,07,20,15.40
2015,08,13,07,21,15.40
2015,08,13,07,22,15.40
2015,08,13,07,23,15.50
2015,08,13,07,24,15.50
2015,08,13,07,25,15.50
2015,08,13,07,26,15.60
2015,08,13,07,27,15.60
2015,08,13,07,28,15.60
2015,08,13,07,29,15.70
2015,08,13,07,30,15.70
2015,08,13,07,31,15.70
2015,08,13,07,32,15.80
2015,08,13,07,33,15.80
2015,08,13,07,34,15.80
2015,08,13,07,35,15.80
2015,08,13,07,36,15.90
2015,08,13,07,37,15.90
2015,08,13,07,38,15.90
2015,08,13,07,39,16.00
2015,08,13,07,40,16.00
2015,08,13,07,41,16.00
2015,08,13,07,42,16.10
2015,08,13,07,43,16.10
2015,08,13,07,44,16.10
2015,08,13,07,45,16.10
2015,08,13,07,46,16.10
2015,08,13,07,47,16.10
2015,08,13,07,48,16.10
2015,08,13,07,49,16.10
2015,08,13,07,50,16.10
2015,08,13,07,51,16.10
2015,08,13,07,52,16.10
2015,08,13,07,53,16.20
2015,08,13,07,54,16.20
2015,08,13,07,55,16.20
2015,08,13,07,56,16.20
2015,08,13,07,57,16.20
2015,08,13,07,58,16.20
2015,08,13,07,59,16.20
2015,08,13,08,00,16.20
2015,08,13,08,01,16.20
2015,08,13,08,02,16.20
2015,08,13,08,03,16.30
2015,08,13,08,04,16.30
2015,08,13,08,05,16.30
2015,08,13,08,06,16.40
2015,08,13,08,07,16.40
2015,08,13,08,08,16.40
2015,08,13,08,09,16.50
2015,08,13,08,10,16.50
2015,08,13,08,11,16.60
2015,08,13,08,12,16.60
2015,08,13,08,13,16.70
2015,08,13,08,14,16.70
2015,08,13,08,15,16.70
2015,08,13,08,16,16.80
2015,08,13,08,17,16.80
2015,08,13,08,18,16.90
2015,08,13,08,19,16.90
2015,08,13,08,20,17.00
2015,08,13,08,21,17.00
2015,08,13,08,22,17.10
2015,08,13,08,23,17.10
2015,08,13,08,24,17.10
2015,08,13,08,25,17.20
2015,08,13,08,26,17.30
2015,08,13,08,27,17.30
2015,08,13,08,28,17.40
2015,08,13,08,29,17.40
2015,08,13,08,30,17.50
2015,08,13,08,31,17.50
2015,08,13,08,32,17.60
2015,08,13,08,33,17.60
2015,08,13,08,34,17.60
2015,08,13,08,35,17.70
2015,08,13,08,36,17.70
2015,08,13,08,37,17.80
2015,08,13,08,38,17.80
2015,08,13,08,39,17.90
2015,08,13,08,40,17.90
2015,08,13,08,41,18.00
2015,08,13,08,42,18.00
2015,08,13,08,43,18.10
2015,08,13,08,44,18.20
2015,08,13,08,45,18.20
2015,08,13,08,46,18.30
2015,08,13,08,47,18.40
2015,08,13,08,48,18.40
2015,08,13,08,49,18.50
2015,08,13,08,50,18.50
2015,08,13,08,51,18.60
2015,08,13,08,52,18.60
2015,08,13,08,53,18.60
2015,08,13,08,54,18.70
2015,08,13,08,55,18.70
2015,08,13,08,56,18.70
2015,08,13,08,57,18.70
2015,08,13,08,58,18.70
2015,08,13,08,59,18.80
2015,08,13,09,00,18.80
2015,08,13,09,01,18.80
2015,08,13,09,02,18.90
2015,08,13,09,03,18.90
2015,08,13,09,04,18.90
2015,08,13,09,05,19.00
2015,08,13,09,06,19.00
2015,08,13,09,07,19.00
2015,08,13,09,08,19.10
2015,08,13,09,09,19.10
2015,08,13,09,10,19.10
2015,08,13,09,11,19.10
2015,08,13,09,12,19.20
2015,08,13,09,13,19.20
2015,08,13,09,14,19.20
2015,08,13,09,15,19.20
2015,08,13,09,16,19.20
2015,08,13,09,17,19.30
2015,08,13,09,18,19.30
2015,08,13,09,19,19.40
2015,08,13,09,20,19.40
2015,08,13,09,21,19.40
2015,08,13,09,22,19.50
2015,08,13,09,23,19.50
2015,08,13,09,24,19.60
2015,08,13,09,25,19.60
2015,08,13,09,26,19.60
2015,08,13,09,27,19.60
2015,08,13,09,28,19.60
2015,08,13,09,29,19.60
2015,08,13,09,30,19.60
2015,08,13,09,31,19.60
2015,08,13,09,32,19.60
2015,08,13,09,33,19.50
2015,08,13,09,34,19.50
2015,08,13,09,35,19.40
2015,08,13,09,36,19.30
2015,08,13,09,37,19.30
2015,08,13,09,38,19.30
2015,08,13,09,39,19.30
2015,08,13,09,40,19.30
2015,08,13,09,41,19.30
2015,08,13,09,42,19.30
2015,08,13,09,43,19.30
2015,08,13,09,44,19.30
2015,08,13,09,45,19.20
2015,08,13,09,46,19.30
2015,08,13,09,47,19.30
2015,08,13,09,48,19.40
2015,08,13,09,49,19.40
2015,08,13,09,50,19.50
2015,08,13,09,51,19.50
2015,08,13,09,52,19.50
2015,08,13,09,53,19.60
2015,08,13,09,54,19.60
2015,08,13,09,55,19.70
2015,08,13,09,56,19.70
2015,08,13,09,57,19.80
2015,08,13,09,58,19.80
2015,08,13,09,59,19.80
2015,08,13,10,00,19.80
2015,08,13,10,01,19.80
2015,08,13,10,02,19.80
2015,08,13,10,03,19.80
2015,08,13,10,04,19.90
2015,08,13,10,05,19.90
2015,08,13,10,06,19.90
2015,08,13,10,07,19.90
2015,08,13,10,08,20.00
2015,08,13,10,09,20.10
2015,08,13,10,10,20.20
2015,08,13,10,11,20.20
2015,08,13,10,12,20.30
2015,08,13,10,13,20.40
2015,08,13,10,14,20.40
2015,08,13,10,15,20.50
2015,08,13,10,16,20.50
2015,08,13,10,17,20.60
2015,08,13,10,18,20.60
2015,08,13,10,19,20.60
2015,08,13,10,20,20.70
2015,08,13,10,21,20.70
2015,08,13,10,22,20.70
2015,08,13,10,23,20.80
2015,08,13,10,24,20.80
2015,08,13,10,25,20.90
2015,08,13,10,26,20.90
2015,08,13,10,27,21.00
2015,08,13,10,28,21.10
2015,08,13,10,29,21.10
2015,08,13,10,30,21.20
2015,08,13,10,31,21.20
2015,08,13,10,32,21.20
2015,08,13,10,33,21.30
2015,08,13,10,34,21.30
2015,08,13,10,35,21.30
2015,08,13,10,36,21.20
2015,08,13,10,37,21.30
2015,08,13,10,38,21.30
2015,08,13,10,39,21.30
2015,08,13,10,40,21.30
2015,08,13,10,41,21.30
2015,08,13,10,42,21.30
2015,08,13,10,43,21.40
2015,08,13,10,44,21.30
2015,08,13,10,45,21.40
2015,08,13,10,46,21.40
2015,08,13,10,47,21.40
2015,08,13,10,48,21.40
2015,08,13,10,49,21.50
2015,08,13,10,50,21.60
2015,08,13,10,51,21.70
2015,08,13,10,52,21.70
2015,08,13,10,53,21.80
2015,08,13,10,54,21.80
2015,08,13,10,55,21.90
2015,08,13,10,56,21.90
2015,08,13,10,57,21.90
2015,08,13,10,58,22.00
2015,08,13,10,59,22.00
2015,08,13,11,00,22.00
2015,08,13,11,01,21.90
2015,08,13,11,02,21.80
2015,08,13,11,03,21.80
2015,08,13,11,04,21.80
2015,08,13,11,05,21.80
2015,08,13,11,06,21.80
2015,08,13,11,07,21.80
2015,08,13,11,08,21.80
2015,08,13,11,09,21.80
2015,08,13,11,10,21.80
2015,08,13,11,11,21.80
2015,08,13,11,12,21.80
2015,08,13,11,13,21.80
2015,08,13,11,14,21.80
2015,08,13,11,15,21.90
2015,08,13,11,16,22.00
2015,08,13,11,17,22.10
2015,08,13,11,18,22.10
2015,08,13,11,19,22.10
2015,08,13,11,20,22.10
2015,08,13,11,21,22.10
2015,08,13,11,22,22.10
2015,08,13,11,23,22.10
2015,08,13,11,24,22.00
2015,08,13,11,25,22.00
2015,08,13,11,26,22.00
2015,08,13,11,27,22.00
2015,08,13,11,28,22.10
2015,08,13,11,29,22.10
2015,08,13,11,30,22.10
2015,08,13,11,31,22.10
2015,08,13,11,32,22.10
2015,08,13,11,33,22.10
2015,08,13,11,34,22.20
2015,08,13,11,35,22.10
2015,08,13,11,36,22.10
2015,08,13,11,37,22.10
2015,08,13,11,38,22.20
2015,08,13,11,39,22.30
2015,08,13,11,40,22.30
2015,08,13,11,41,22.40
2015,08,13,11,42,22.60
2015,08,13,11,43,22.70
2015,08,13,11,44,22.80
2015,08,13,11,45,22.90
2015,08,13,11,46,23.00
2015,08,13,11,47,23.00
2015,08,13,11,48,23.10
2015,08,13,11,49,23.10
2015,08,13,11,50,23.10
2015,08,13,11,51,23.10
2015,08,13,11,52,23.10
2015,08,13,11,53,23.10
2015,08,13,11,54,23.10
2015,08,13,11,55,23.10
2015,08,13,11,56,23.10
2015,08,13,11,57,23.10
2015,08,13,11,58,23.20
2015,08,13,11,59,23.20
2015,08,13,12,00,23.30
2015,08,13,12,01,23.30
2015,08,13,12,02,23.40
2015,08,13,12,03,23.40
2015,08,13,12,04,23.50
2015,08,13,12,05,23.50
2015,08,13,12,06,23.40
2015,08,13,12,07,23.40
2015,08,13,12,08,23.40
2015,08,13,12,09,23.40
2015,08,13,12,10,23.50
2015,08,13,12,11,23.60
2015,08,13,12,12,23.60
2015,08,13,12,13,23.70
2015,08,13,12,14,23.80
2015,08,13,12,15,23.80
2015,08,13,12,16,23.90
2015,08,13,12,17,24.00
2015,08,13,12,18,24.00
2015,08,13,12,19,24.00
2015,08,13,12,20,24.00
2015,08,13,12,21,24.00
2015,08,13,12,22,24.00
2015,08,13,12,23,23.90
2015,08,13,12,24,23.90
2015,08,13,12,25,23.90
2015,08,13,12,26,23.90
2015,08,13,12,27,23.80
2015,08,13,12,28,23.90
2015,08,13,12,29,23.90
2015,08,13,12,30,23.90
2015,08,13,12,31,24.00
2015,08,13,12,32,24.10
2015,08,13,12,33,24.20
2015,08,13,12,34,24.30
2015,08,13,12,35,24.50
2015,08,13,12,36,24.50
2015,08,13,12,37,24.60
2015,08,13,12,38,24.60
2015,08,13,12,39,24.60
2015,08,13,12,40,24.50
2015,08,13,12,41,24.50
2015,08,13,12,42,24.50
2015,08,13,12,43,24.40
2015,08,13,12,44,24.40
2015,08,13,12,45,24.30
2015,08,13,12,46,24.40
2015,08,13,12,47,24.40
2015,08,13,12,48,24.40
2015,08,13,12,49,24.40
2015,08,13,12,50,24.50
2015,08,13,12,51,24.50
2015,08,13,12,52,24.60
2015,08,13,12,53,24.60
2015,08,13,12,54,24.60
2015,08,13,12,55,24.70
2015,08,13,12,56,24.70
2015,08,13,12,57,24.70
2015,08,13,12,58,24.70
2015,08,13,12,59,24.70
2015,08,13,13,00,24.70
2015,08,13,13,01,24.80
2015,08,13,13,02,24.80
2015,08,13,13,03,24.90
2015,08,13,13,04,24.90
2015,08,13,13,05,25.00
2015,08,13,13,06,25.00
2015,08,13,13,07,25.10
2015,08,13,13,08,25.10
2015,08,13,13,09,25.10
2015,08,13,13,10,25.10
2015,08,13,13,11,25.10
2015,08,13,13,12,25.10
2015,08,13,13,13,25.10
2015,08,13,13,14,25.10
2015,08,13,13,15,25.10
2015,08,13,13,16,25.10
2015,08,13,13,17,25.10
2015,08,13,13,18,25.10
2015,08,13,13,19,25.10
2015,08,13,13,20,25.10
2015,08,13,13,21,25.10
2015,08,13,13,22,25.20
2015,08,13,13,23,25.20
2015,08,13,13,24,25.20
2015,08,13,13,25,25.20
2015,08,13,13,26,25.20
2015,08,13,13,27,25.20
2015,08,13,13,28,25.20
2015,08,13,13,29,25.20
2015,08,13,13,30,25.20
2015,08,13,13,31,25.20
2015,08,13,13,32,25.20
2015,08,13,13,33,25.30
2015,08,13,13,34,25.30
2015,08,13,13,35,25.30
2015,08,13,13,36,25.40
2015,08,13,13,37,25.30
2015,08,13,13,38,25.30
2015,08,13,13,39,25.30
2015,08,13,13,40,25.30
2015,08,13,13,41,25.40
2015,08,13,13,42,25.40
2015,08,13,13,43,25.40
2015,08,13,13,44,25.40
2015,08,13,13,45,25.30
2015,08,13,13,46,25.30
2015,08,13,13,47,25.30
2015,08,13,13,48,25.30
2015,08,13,13,49,25.30
2015,08,13,13,50,25.30
2015,08,13,13,51,25.30
2015,08,13,13,52,25.40
2015,08,13,13,53,25.40
2015,08,13,13,54,25.40
2015,08,13,13,55,25.50
2015,08,13,13,56,25.50
2015,08,13,13,57,25.50
2015,08,13,13,58,25.50
2015,08,13,13,59,25.60
2015,08,13,14,00,25.70
2015,08,13,14,01,25.70
2015,08,13,14,02,25.70
2015,08,13,14,03,25.70
2015,08,13,14,04,25.70
2015,08,13,14,05,25.70
2015,08,13,14,06,25.70
2015,08,13,14,07,25.70
2015,08,13,14,08,25.70
2015,08,13,14,09,25.70
2015,08,13,14,10,25.70
2015,08,13,14,11,25.80
2015,08,13,14,12,25.80
2015,08,13,14,13,25.90
2015,08,13,14,14,25.90
2015,08,13,14,15,25.90
2015,08,13,14,16,26.00
2015,08,13,14,17,26.00
2015,08,13,14,18,26.00
2015,08,13,14,19,26.00
2015,08,13,14,20,26.00
2015,08,13,14,21,26.00
2015,08,13,14,22,26.00
2015,08,13,14,23,26.00
2015,08,13,14,24,25.90
2015,08,13,14,25,26.00
2015,08,13,14,26,26.00
2015,08,13,14,27,26.10
2015,08,13,14,28,26.10
2015,08,13,14,29,26.20
2015,08,13,14,30,26.20
2015,08,13,14,31,26.20
2015,08,13,14,32,26.30
2015,08,13,14,33,26.30
2015,08,13,14,34,26.30
2015,08,13,14,35,26.30
2015,08,13,14,36,26.30
2015,08,13,14,37,26.40
2015,08,13,14,38,26.40
2015,08,13,14,39,26.50
2015,08,13,14,40,26.50
2015,08,13,14,41,26.50
2015,08,13,14,42,26.60
2015,08,13,14,43,26.60
2015,08,13,14,44,26.60
2015,08,13,14,45,26.60
2015,08,13,14,46,26.60
2015,08,13,14,47,26.50
2015,08,13,14,48,26.50
2015,08,13,14,49,26.50
2015,08,13,14,50,26.50
2015,08,13,14,51,26.60
2015,08,13,14,52,26.60
2015,08,13,14,53,26.60
2015,08,13,14,54,26.70
2015,08,13,14,55,26.70
2015,08,13,14,56,26.80
2015,08,13,14,57,26.80
2015,08,13,14,58,26.80
2015,08,13,14,59,26.80
2015,08,13,15,00,26.80
2015,08,13,15,01,26.90
2015,08,13,15,02,27.00
2015,08,13,15,03,27.10
2015,08,13,15,04,27.20
2015,08,13,15,05,27.20
2015,08,13,15,06,27.20
2015,08,13,15,07,27.10
2015,08,13,15,08,27.10
2015,08,13,15,09,27.00
2015,08,13,15,10,27.00
2015,08,13,15,11,26.90
2015,08,13,15,12,26.90
2015,08,13,15,13,26.80
2015,08,13,15,14,26.80
2015,08,13,15,15,26.80
2015,08,13,15,16,26.90
2015,08,13,15,17,27.00
2015,08,13,15,18,27.10
2015,08,13,15,19,27.20
2015,08,13,15,20,27.30
2015,08,13,15,21,27.40
2015,08,13,15,22,27.40
2015,08,13,15,23,27.40
2015,08,13,15,24,27.30
2015,08,13,15,25,27.30
2015,08,13,15,26,27.20
2015,08,13,15,27,27.20
2015,08,13,15,28,27.20
2015,08,13,15,29,27.20
2015,08,13,15,30,27.20
2015,08,13,15,31,27.30
2015,08,13,15,32,27.20
2015,08,13,15,33,27.20
2015,08,13,15,34,27.20
2015,08,13,15,35,27.10
2015,08,13,15,36,27.10
2015,08,13,15,37,27.00
2015,08,13,15,38,27.00
2015,08,13,15,39,26.90
2015,08,13,15,40,26.90
2015,08,13,15,41,26.80
2015,08,13,15,42,26.80
2015,08,13,15,43,26.80
2015,08,13,15,44,26.80
2015,08,13,15,45,26.80
2015,08,13,15,46,26.80
2015,08,13,15,47,26.80
2015,08,13,15,48,26.80
2015,08,13,15,49,26.90
2015,08,13,15,50,26.90
2015,08,13,15,51,26.90
2015,08,13,15,52,27.00
2015,08,13,15,53,27.00
2015,08,13,15,54,27.10
2015,08,13,15,55,27.10
2015,08,13,15,56,27.10
2015,08,13,15,57,27.10
2015,08,13,15,58,27.20
2015,08,13,15,59,27.30
2015,08,13,16,00,27.40
2015,08,13,16,01,27.40
2015,08,13,16,02,27.40
2015,08,13,16,03,27.40
2015,08,13,16,04,27.40
2015,08,13,16,05,27.40
2015,08,13,16,06,27.50
2015,08,13,16,07,27.50
2015,08,13,16,08,27.60
2015,08,13,16,09,27.60
2015,08,13,16,10,27.60
2015,08,13,16,11,27.60
2015,08,13,16,12,27.70
2015,08,13,16,13,27.70
2015,08,13,16,14,27.70
2015,08,13,16,15,27.70
2015,08,13,16,16,27.70
2015,08,13,16,17,27.70
2015,08,13,16,18,27.70
2015,08,13,16,19,27.70
2015,08,13,16,20,27.70
2015,08,13,16,21,27.60
2015,08,13,16,22,27.60
2015,08,13,16,23,27.60
2015,08,13,16,24,27.60
2015,08,13,16,25,27.60
2015,08,13,16,26,27.70
2015,08,13,16,27,27.70
2015,08,13,16,28,27.80
2015,08,13,16,29,27.80
2015,08,13,16,30,27.90
2015,08,13,16,31,28.00
2015,08,13,16,32,28.10
2015,08,13,16,33,28.20
2015,08,13,16,34,28.20
2015,08,13,16,35,28.30
2015,08,13,16,36,28.20
2015,08,13,16,37,28.20
2015,08,13,16,38,28.20
2015,08,13,16,39,28.20
2015,08,13,16,40,28.10
2015,08,13,16,41,28.00
2015,08,13,16,42,27.90
2015,08,13,16,43,27.80
2015,08,13,16,44,27.80
2015,08,13,16,45,27.80
2015,08,13,16,46,27.80
2015,08,13,16,47,27.80
2015,08,13,16,48,27.80
2015,08,13,16,49,27.80
2015,08,13,16,50,27.90
2015,08,13,16,51,27.90
2015,08,13,16,52,27.90
2015,08,13,16,53,27.90
2015,08,13,16,54,27.90
2015,08,13,16,55,27.90
2015,08,13,16,56,27.90
2015,08,13,16,57,27.90
2015,08,13,16,58,27.80
2015,08,13,16,59,27.80
2015,08,13,17,00,27.80
2015,08,13,17,01,27.80
2015,08,13,17,02,27.90
2015,08,13,17,03,28.00
2015,08,13,17,04,28.10
2015,08,13,17,05,28.10
2015,08,13,17,06,28.20
2015,08,13,17,07,28.30
2015,08,13,17,08,28.30
2015,08,13,17,09,28.30
2015,08,13,17,10,28.20
2015,08,13,17,11,28.20
2015,08,13,17,12,28.20
2015,08,13,17,13,28.10
2015,08,13,17,14,28.00
2015,08,13,17,15,28.00
2015,08,13,17,16,28.00
2015,08,13,17,17,28.10
2015,08,13,17,18,28.10
2015,08,13,17,19,28.10